RH
58 58 64 64 59 54 57 60 50 43 38 36 36 37 36 35 37 42 42 38 43 41 36 38 36 34 32 29 27 28 26 23 24 23 26 25 30 37 38 36 34 35 33 32 28
54 51 50 48 58 62 57 48 42 36 32 30 29 29 29 30 32 29 30 31 32 32 32 34 34 33 33 31 29 24 20 20 19 19 19 19 24 27 26 26 26 24 24 23 22
66 64 58 52 44 35 30 29 28 27 24 22 20 20 20 22 22 24 24 22 23 24 26 22 23 27 29 31 28 26 23 22 21 19 16 16 16 17 20 23 24 23 21 20 19
34 33 31 29 27 26 25 26 25 25 22 19 17 17 16 15 15 16 18 18 20 20 20 19 18 20 22 26 28 27 25 21 22 21 17 15 14 13 12 12 12 11 12 12 11
34 30 26 24 22 21 21 20 19 19 17 15 14 13 12 12 12 13 13 14 14 16 17 18 18 19 20 21 23 24 25 22 20 20 13 12 12 12 12 12 13 17 18 17 17
25 24 22 20 19 19 18 18 17 17 17 17 16 15 15 14 14 13 12 11 11 13 14 15 17 17 17 18 19 18 22 23 21 19 13 12 11 11 13 16 19 20 18 17 16
27 27 25 23 18 19 19 20 22 20 18 17 16 15 14 13 12 12 12 10 10 10 10 11 13 15 16 16 17 17 18 19 19 16 12 15 12 13 16 21 23 21 17 15 15
38 36 35 25 20 21 24 25 26 25 21 25 30 25 21 18 16 15 14 14 13 11 10 10 11 12 14 15 15 15 16 14 14 12 14 18 17 15 16 21 22 18 17 16 18
43 42 36 32 23 24 24 31 28 35 28 45 39 23 12 10 9 9 12 15 17 15 14 13 12 13 12 13 14 13 13 13 12 13 15 17 23 18 18 22 21 18 18 26 48
46 52 51 66 41 30 31 48 39 35 36 47 32 14 11 10 9 9 9 9 10 17 20 17 15 14 13 14 13 13 14 13 13 14 17 18 27 25 25 22 18 18 34 50 46
49 56 57 81 52 35 47 63 58 38 46 45 32 14 11 11 10 9 8 9 9 9 14 20 23 18 14 12 13 15 15 16 16 16 20 24 28 25 24 18 19 40 48 44 46
42 53 60 70 53 51 56 65 56 49 45 48 32 17 14 15 13 11 10 9 9 9 10 14 24 28 21 15 14 14 16 17 17 17 18 26 29 26 20 19 40 43 43 45 42
41 46 71 59 55 51 54 65 64 55 46 50 42 23 16 15 16 14 12 12 11 10 10 16 22 22 17 14 13 14 16 18 20 19 21 28 30 22 22 41 46 47 45 43 45
55 68 77 58 64 60 53 55 79 61 51 50 48 36 16 16 16 17 16 13 12 12 13 16 17 16 17 16 17 16 18 20 21 24 31 27 19 21 39 46 46 46 45 49 60
100 100 59 63 68 63 59 52 72 68 46 53 49 46 26 17 18 20 18 16 15 13 15 19 20 20 20 17 16 17 19 21 28 29 25 18 24 50 53 55 53 47 51 59 54
100 100 65 62 65 64 64 61 62 64 56 49 52 52 45 24 18 21 22 19 17 16 15 16 21 24 21 18 21 27 30 30 28 21 20 40 47 55 50 44 44 49 60 56 49
100 84 58 66 64 66 55 63 65 60 58 58 54 52 52 47 34 20 20 25 25 22 21 20 20 20 22 25 28 27 23 19 22 42 47 50 51 54 47 52 49 61 50 45 43
100 92 71 67 63 58 56 53 58 70 59 61 50 57 55 58 48 45 37 21 20 21 21 21 21 20 20 21 23 30 40 45 44 46 49 53 54 52 58 52 60 46 43 42 42
100 100 84 81 66 62 44 50 53 58 67 61 57 50 60 59 62 55 46 46 42 41 36 39 40 40 41 43 44 47 42 38 39 43 43 50 54 70 58 48 44 42 45 41 26
100 100 93 74 74 55 44 44 52 50 62 66 66 64 55 55 61 63 63 55 47 44 43 40 40 39 37 37 37 38 42 50 58 60 59 62 57 75 40 40 41 45 41 30 19
100 100 100 82 67 66 72 50 44 48 45 57 69 70 82 69 46 44 48 44 47 46 43 42 41 40 38 38 45 53 62 70 69 65 48 33 40 35 37 32 41 38 34 21 14
100 100 97 83 82 66 55 58 51 44 40 41 56 66 71 70 83 84 73 61 55 57 46 42 40 49 53 64 74 75 61 54 52 49 40 32 37 33 32 35 33 31 22 13 9
100 100 86 93 82 64 61 63 65 47 40 38 37 53 64 72 72 80 78 81 80 79 78 78 76 72 68 62 54 50 50 50 52 46 39 33 30 31 29 33 29 21 15 11 9
99 100 92 100 90 76 75 70 70 57 53 47 37 40 49 58 64 73 76 75 73 68 65 59 57 53 54 54 49 57 61 51 47 37 29 32 30 27 32 28 21 19 12 10 9
55 98 100 99 98 77 70 78 77 68 62 52 43 39 49 48 53 52 53 59 70 68 65 60 58 56 62 56 48 52 46 41 34 31 25 29 25 31 28 25 20 14 11 10 10
75 61 99 100 99 90 78 78 85 69 71 80 66 52 68 59 42 43 41 44 44 46 56 64 61 60 63 55 49 54 44 38 34 30 28 30 34 28 26 22 18 14 13 11 9
89 87 71 90 94 82 88 91 90 95 99 84 76 79 74 62 53 49 45 39 39 39 39 39 39 39 40 40 38 39 41 36 34 33 33 30 35 30 28 22 15 11 11 10 9
Wind_Speed
17 19 21 24 25 27 28 31 32 34 34 35 36 36 37 37 39 39 39 40 39 38 37 39 39 39 39 38 38 39 40 39 41 41 43 44 46 48 48 48 49 51 52 55 57
25 27 29 30 32 33 34 36 38 39 40 41 41 42 43 42 43 43 44 45 44 44 43 43 44 44 44 44 44 43 42 41 43 45 46 46 48 50 51 51 54 55 56 58 62
30 31 33 35 37 38 39 40 41 43 43 45 47 48 49 49 48 49 49 48 49 49 49 48 46 47 47 47 47 46 45 47 47 50 50 50 49 51 52 54 57 59 60 63 65
33 35 36 38 40 41 42 44 45 46 48 51 53 52 53 55 55 56 55 54 53 53 53 50 48 48 47 49 51 51 50 49 50 52 54 55 54 53 53 55 56 59 62 64 64
35 36 38 40 42 43 44 46 48 51 54 55 55 56 57 58 58 59 61 60 59 58 56 55 53 51 51 51 51 53 54 53 52 54 54 55 54 57 54 54 54 54 57 59 59
38 40 42 44 45 47 47 49 49 51 53 55 56 57 58 60 61 62 65 63 63 62 61 60 59 57 55 54 54 54 55 58 57 56 55 56 56 56 52 52 52 53 56 57 60
40 40 42 43 45 44 44 44 47 52 57 60 58 58 61 63 64 65 68 67 65 64 64 62 61 59 58 57 56 55 55 55 54 54 54 56 57 54 52 51 53 56 60 60 62
40 42 43 43 44 43 40 43 48 53 51 42 43 47 49 50 51 52 55 59 63 65 66 65 63 62 61 59 57 56 55 55 53 53 52 53 59 54 52 51 55 57 62 65 64
42 43 46 43 42 41 41 43 50 48 38 39 43 45 45 44 46 49 51 52 55 58 62 66 65 63 61 60 59 59 58 57 55 53 53 50 58 54 49 50 57 59 63 62 59
45 45 44 44 42 39 39 44 48 45 36 38 43 41 37 38 37 39 43 47 52 55 55 56 61 63 62 61 60 59 58 57 55 50 50 48 52 54 52 53 57 61 60 60 63
49 50 48 48 47 41 39 44 45 41 35 38 39 37 32 31 30 31 35 40 45 49 53 49 50 53 58 60 59 57 55 54 51 49 49 46 50 52 56 57 59 59 60 62 67
54 53 51 50 48 46 41 43 43 43 36 38 38 33 30 28 26 24 26 31 35 40 44 44 44 45 47 50 52 53 52 50 50 48 48 49 53 55 58 60 59 59 61 65 73
57 57 54 51 44 47 43 40 42 40 35 35 36 34 28 24 23 22 21 22 25 30 34 37 38 39 39 42 46 48 51 49 49 50 50 47 53 60 58 58 61 62 65 71 78
59 57 54 48 45 45 45 41 40 40 35 34 33 33 28 24 21 20 18 18 19 25 31 33 33 34 35 38 42 44 48 48 48 46 50 53 51 59 58 60 63 65 71 78 85
59 55 53 46 43 44 44 39 37 41 34 33 31 32 28 24 21 20 18 15 18 23 29 33 33 32 31 34 36 38 40 41 43 46 50 55 54 55 60 65 67 71 78 84 90
55 53 53 46 42 41 39 40 39 40 35 31 31 29 28 24 22 19 18 17 16 20 26 31 33 33 33 34 35 38 40 41 46 50 50 52 54 60 63 69 72 79 86 90 98
56 56 54 48 46 43 42 41 41 39 36 32 31 30 28 26 22 21 20 20 19 21 24 28 31 33 33 33 37 41 45 46 45 47 50 54 56 65 68 76 78 86 90 96 102
55 57 55 52 49 46 45 42 41 40 38 35 33 32 31 27 26 24 22 22 24 25 27 30 32 33 34 36 39 41 43 44 44 48 51 58 63 67 77 79 86 91 96 101 108
61 62 57 55 52 49 48 49 45 42 42 37 34 34 34 33 29 28 28 27 25 26 28 31 35 34 35 38 41 45 47 50 51 52 53 60 67 77 84 86 92 95 100 106 105
64 65 64 62 57 55 51 51 50 43 41 40 37 34 34 36 36 36 35 34 32 31 33 36 40 40 40 44 45 48 51 55 58 59 60 65 71 87 87 92 95 100 104 100 98
70 68 66 67 65 61 57 55 53 50 45 43 41 39 37 36 39 40 39 38 38 37 38 41 45 47 45 50 51 52 56 62 64 69 72 70 75 85 91 93 98 97 97 95 94
74 71 71 67 66 67 65 62 60 55 52 47 46 46 43 41 41 40 40 41 40 39 41 43 46 51 50 50 52 56 62 69 70 73 78 79 82 90 94 95 95 95 94 92 90
77 77 74 70 67 67 68 68 65 63 62 57 53 51 48 48 48 49 47 46 46 44 44 45 49 51 56 59 60 65 71 78 79 82 85 88 93 99 98 96 94 93 91 89 88
82 76 74 73 70 68 68 67 65 65 64 61 57 55 54 54 51 54 55 55 55 55 54 54 58 59 64 68 69 72 79 84 87 88 86 99 95 102 94 92 90 89 87 85 83
91 81 77 76 77 73 69 65 65 65 65 65 65 57 59 61 58 60 60 60 61 62 63 64 66 65 70 76 74 78 85 92 93 94 93 96 99 93 89 88 88 85 83 82 80
92 91 85 81 81 76 72 68 68 68 64 66 66 62 64 66 62 68 68 68 69 70 70 72 72 73 76 83 81 84 91 96 97 98 99 96 89 93 89 88 88 85 83 80 77
93 94 93 89 86 79 74 74 70 68 69 69 67 66 67 68 68 68 70 71 73 77 78 80 79 79 81 86 86 89 93 97 96 98 97 95 95 89 87 88 88 82 79 77 75
Wind_Direction
248 253 259 261 262 261 261 265 267 268 269 270 268 265 265 263 259 257 258 257 255 256 256 258 260 263 262 262 263 265 266 267 265 264 262 262 262 262 263 263 262 263 264 267 266
254 258 260 264 264 263 264 266 268 270 271 270 269 268 266 264 263 262 259 257 256 256 256 256 257 259 261 262 264 265 266 266 268 268 267 265 262 262 263 263 262 262 262 263 266
261 263 265 268 272 275 277 278 276 275 274 273 271 268 266 264 261 258 258 258 258 257 258 258 258 259 261 262 262 262 264 266 268 270 270 271 268 267 266 265 265 266 265 264 264
270 272 273 273 273 274 274 275 277 277 277 277 276 272 269 267 265 263 259 256 255 257 257 257 259 259 261 260 260 261 264 267 267 269 272 273 270 267 269 268 267 268 266 264 264
279 281 281 281 281 281 280 280 280 280 281 279 275 273 270 268 266 264 263 259 255 254 254 256 257 258 259 261 262 262 262 265 266 269 273 271 269 269 268 267 268 268 266 267 268
283 284 284 284 283 282 282 282 282 281 280 281 278 274 269 265 263 262 262 260 257 254 253 253 254 255 257 260 263 264 264 266 267 268 272 271 267 268 266 268 268 267 271 272 275
284 288 289 288 286 285 284 287 285 284 286 286 282 277 272 268 266 264 262 259 255 253 254 254 254 255 256 258 260 262 262 264 266 268 272 272 268 265 266 266 271 270 275 274 277
288 290 292 293 289 287 288 292 291 296 294 288 285 283 280 275 271 266 260 259 256 253 252 253 253 254 256 257 258 260 261 263 266 269 270 272 270 265 266 271 275 272 278 279 277
286 291 292 294 292 288 293 296 297 305 294 293 293 291 287 280 274 267 260 256 254 252 251 250 251 253 255 256 257 260 262 264 266 267 269 272 272 268 271 274 277 279 279 277 274
283 288 288 295 293 292 295 298 302 305 295 299 304 300 292 290 281 269 260 257 252 249 250 250 249 251 253 255 258 260 262 264 266 265 270 272 270 275 276 278 280 280 277 276 278
279 284 282 293 293 292 296 297 302 308 297 304 310 305 303 300 287 275 262 257 253 251 247 248 251 251 252 254 256 258 261 264 263 267 272 270 268 273 279 281 280 277 278 280 283
276 280 283 290 288 291 294 295 302 311 300 306 315 311 312 312 301 285 271 261 256 249 245 244 248 252 256 256 256 257 259 263 265 269 272 272 274 277 281 281 279 281 284 285 287
273 277 284 288 284 288 291 294 298 310 300 304 314 316 314 316 318 306 286 268 256 248 240 241 248 252 255 258 259 258 260 263 267 271 270 270 278 282 283 283 285 288 289 289 290
272 276 280 283 282 287 293 293 294 305 304 298 309 316 311 317 319 316 304 281 258 241 238 242 248 253 256 259 262 262 260 263 265 268 275 277 278 283 283 284 285 288 290 292 294
271 274 272 277 278 283 290 293 290 300 300 293 303 313 315 310 316 318 313 295 267 246 243 247 249 252 258 266 268 266 262 262 267 273 275 282 285 282 285 287 290 293 296 295 298
267 268 269 272 273 279 288 294 291 297 298 287 292 304 314 312 305 304 306 302 283 267 258 257 258 259 266 269 269 269 270 271 275 279 282 282 284 282 285 288 295 298 297 298 296
262 263 266 270 270 272 279 290 292 291 294 291 283 291 301 310 310 300 293 289 285 280 273 271 272 274 275 276 275 275 278 280 282 284 287 285 286 288 291 292 297 295 298 299 300
257 262 263 265 266 270 273 281 290 287 290 291 282 280 288 298 304 307 303 290 284 280 279 279 279 279 279 280 280 280 280 282 282 284 285 289 290 293 291 297 297 300 299 300 302
253 258 262 263 262 266 269 277 281 287 288 285 285 277 277 282 287 292 295 296 297 296 294 292 292 292 292 289 287 286 287 289 289 291 293 294 297 296 295 298 299 301 303 303 302
247 252 258 260 262 264 267 270 277 279 284 283 283 282 279 278 279 282 285 286 287 287 289 288 288 288 290 290 290 290 291 290 292 293 292 294 297 292 300 300 304 305 304 303 304
245 249 254 258 260 263 266 269 271 276 278 282 280 279 280 279 278 279 278 281 281 282 283 284 285 286 289 289 290 291 291 291 294 295 299 302 300 300 300 306 305 305 304 305 307
245 245 251 255 259 262 264 268 270 271 276 277 277 280 277 277 280 280 281 282 282 282 281 281 281 286 287 287 288 290 291 292 296 298 299 304 302 305 306 308 307 307 306 307 309
243 247 251 254 260 261 263 265 268 272 274 274 275 275 277 278 279 281 281 281 282 281 281 282 282 285 287 288 289 292 293 295 297 298 301 306 308 308 311 310 309 308 308 311 311
242 244 250 253 257 260 262 263 266 268 271 273 274 272 274 274 275 277 280 282 281 282 282 282 283 285 286 287 290 293 294 296 298 302 308 307 310 310 311 310 309 309 311 311 313
243 242 247 251 255 259 263 264 263 266 270 271 273 273 276 273 273 275 277 279 280 282 284 284 285 287 288 290 293 296 297 298 301 305 309 309 312 311 311 311 311 310 312 312 314
242 243 244 248 252 256 261 263 263 267 268 271 272 275 275 274 275 277 279 279 281 282 282 283 285 287 290 291 294 294 296 299 303 306 309 311 312 313 313 312 310 312 314 313 314
241 242 243 247 250 254 258 258 263 265 267 270 274 278 281 280 279 280 280 282 283 284 285 285 286 287 288 289 293 295 297 300 303 306 307 310 311 312 310 309 310 312 312 312 314